Retour au catalogue

YAOGAN-35 02A

ActifMilitaireVLEO
NORAD 52907·PAYLOAD·🇨🇳 China

Lancé Jun 23, 2022 depuis Xichang Satellite Launch Center

Loading…

Prochains Passages (prochaines 24 heures)

TLE

FraisSource: Space-Track

Époque: Sep 14, 2026, 13:54 UTC

1 52907U 22068A   26257.57918223  .00005398  00000-0  21116-3 0  9999
2 52907  34.9921 294.8754 0011018 173.1562 186.9305 15.25140849235548

Suivez YAOGAN-35 02A en temps réel avec AllMySat

Download on the App Store